Weather History for CWWA - October, 2011

Change the Weather History Date:

Saturday, October 8, 2011

  Actual Average Record
Temperature  
Mean Temperature 52 °F -  
Max Temperature 59 °F - - ()
Min Temperature 46 °F - - ()
Degree Days  
Heating Degree Days 12    
Growing Degree Days 2 (Base 50)    
Moisture  
Dew Point 48 °F    
Average Humidity 81    
Maximum Humidity 94    
Minimum Humidity 55    
Precipitation  
Precipitation 0.02 in - - ()
Sea Level Pressure  
Sea Level Pressure 30.14 in    
Wind  
Wind Speed 2 mph ()    
Max Wind Speed 5 mph    
Max Gust Speed -    
T = Trace of Precipitation, MM = Missing Value Source: Averaged Metar Reports

Daily Weather History Graph

Daily Weather History Graph

Search for Another Location

Airport or City:

Trip Planner

Search our weather history database for the weather conditions in past years. The results will help you decide how hot, cold, wet, or windy it might be!

Date:

Astronomy

Oct. 08, 2011 Rise Set
Actual Time 7:22 AM PDT 6:36 PM PDT
Civil Twilight 6:50 AM PDT 7:08 PM PDT
Nautical Twilight 6:14 AM PDT 7:45 PM PDT
Astronomical Twilight 5:36 AM PDT 8:22 PM PDT
Moon 5:00 PM PDT (10/8) 4:01 AM PDT (10/8)
Length of Visible Light 12h 17m
Length of Day
11h 14m
Waxing Gibbous, 90% of the Moon is Illuminated
Oct 8
Waxing Gibbous
Oct 11
Full
Oct 19
Last Quarter
Oct 26
New
Nov 2
First Quarter

Hourly Weather History & Observations

Time (PDT) Temp. Dew Point Humidity Pressure Visibility Wind Dir Wind Speed Gust Speed Precip Events Conditions
12:00 AM 52.2 °F 49.6 °F 91% 30.22 in - East 1.2 mph - N/A   Unknown
1:00 AM 52.3 °F 49.1 °F 89% 30.22 in - East 2.3 mph - N/A   Unknown
2:00 AM 51.4 °F 48.7 °F 90% 30.23 in - East 2.3 mph - N/A   Unknown
3:00 AM 50.9 °F 47.5 °F 88% 30.23 in - East 2.3 mph - N/A   Unknown
4:00 AM 50.2 °F 47.5 °F 90% 30.23 in - Calm Calm - N/A   Unknown
5:00 AM 48 °F 46 °F 91% 30.21 in - NNE 2.3 mph - -  
5:00 AM 47.8 °F 46.2 °F 94% 30.21 in - NNE 2.3 mph - N/A   Unknown
6:00 AM 47.3 °F 45.7 °F 94% 30.21 in - NE 1.2 mph - N/A   Unknown
7:00 AM 47.7 °F 45.7 °F 93% 30.21 in - NNE 1.2 mph - N/A   Unknown
8:00 AM 49.1 °F 46.4 °F 90% 30.20 in - NE 2.3 mph - N/A   Unknown
9:00 AM 49.6 °F 47.3 °F 92% 30.21 in - SSW 1.2 mph - N/A   Unknown
10:00 AM 53.1 °F 47.5 °F 81% 30.17 in - SSE 1.2 mph - N/A   Unknown
11:00 AM 53 °F 49 °F 84% 30.17 in - ESE 2.3 mph - -  
12:00 PM 54.7 °F 49.8 °F 84% 30.16 in - SE 1.2 mph - N/A   Unknown
1:00 PM 57.2 °F 46.6 °F 68% 30.14 in - SE 2.3 mph - N/A   Unknown
2:00 PM 58.5 °F 46.4 °F 64% 30.11 in - ESE 1.2 mph - N/A   Unknown
3:00 PM 59.4 °F 43.0 °F 55% 30.08 in - East 3.5 mph - N/A   Unknown
4:00 PM 59.0 °F 43.3 °F 56% 30.08 in - East 2.3 mph - N/A   Unknown
5:00 PM 56 °F 47 °F 63% 30.08 in - NE 2.3 mph - -  
5:00 PM 55.9 °F 46.9 °F 72% 30.08 in - NE 2.3 mph - N/A   Unknown
6:00 PM 54.0 °F 49.3 °F 84% 30.08 in - NNE 2.3 mph - N/A   Unknown
7:00 PM 52.9 °F 49.1 °F 87% 30.06 in - NE 3.5 mph - 0.02 in   Unknown
8:00 PM 54.3 °F 49.3 °F 83% 30.06 in - East 4.6 mph - N/A   Unknown
9:00 PM 54.1 °F 50.4 °F 87% 30.05 in - ENE 2.3 mph - N/A   Unknown
10:00 PM 55.2 °F 49.5 °F 81% 30.05 in - ENE 3.5 mph - N/A   Unknown
11:00 PM 56 °F 49 °F 70% 30.05 in - East 4.6 mph - -  
11:00 PM 55.8 °F 48.9 °F 78% 30.05 in - East 4.6 mph - N/A   Unknown